Home > Weather > Eilat > Past weeks

Flag for Israel Weather for the Past 2 Weeks in Eilat, Israel

Now
55 °F

Clear.


Feels Like: 52 °F
Forecast: 54 / 78 °F
Wind: 13 mph from Northeast

Location: Eilat

Current Time: Feb 12, 2016 at 6:46:11 AM

Latest Report: Feb 12, 2016 at 5:50 AM


Visibility: 10 mi

Pressure: 30.21 "Hg

Humidity: 63%

Dew point: 43 °F

Location of EilatLocation

Historic Weather in Eilat — Graph

°F

Eilat Temperature Yesterday

Maximum temperature yesterday: 72 °F (at 2:50 PM)
Minimum temperature yesterday: 46 °F (at 6:50 AM)
Average temperature yesterday: 63 °F

High & Low Weather Summary for the Past Weeks

 TemperatureHumidityPressure
High79 °F (Feb 4, 12:50 PM)81% (Jan 28, 5:50 AM)30.45 "Hg (Jan 28, 5:50 AM)
Low43 °F (Jan 29, 5:50 AM)13% (Jan 30, 1:50 PM)29.95 "Hg (Feb 5, 1:50 PM)
Average61 °F39%30.20 "Hg
* Reported Jan 27 9:50 PM — Feb 11 9:50 PM, Eilat, Weather by CustomWeather, © 2016

Note: Actual official high and low records may vary slightly from our data, if they occured in-between our weather recording intervals... More about our weather records

Advertising

Eilat Weather History for the Previous 24 Hours

 ConditionsComfort  
Time TempWeatherWind HumidityBarometerVisibility
9:50 PM
Thu, Feb 11
59 °FClear.6 mph45%30.21 "Hg10 mi
8:50 PM64 °FClear.6 mph34%30.21 "Hg10 mi
7:50 PM66 °FClear.9 mph35%30.21 "Hg10 mi
6:50 PM68 °FClear.10 mph30%30.18 "Hg10 mi
5:50 PM70 °FClear.10 mph27%30.18 "Hg10 mi
4:50 PM72 °FSunny.10 mph25%30.15 "Hg10 mi
3:50 PM72 °FSunny.7 mph27%30.15 "Hg10 mi
2:50 PM72 °FPassing clouds.6 mph29%30.15 "HgN/A
1:50 PM70 °FSunny.3 mph31%30.18 "Hg10 mi
12:50 PM68 °FPassing clouds.7 mph35%30.18 "HgN/A
11:50 AM66 °FSunny.9 mph40%30.21 "Hg10 mi
10:50 AM64 °FSunny.10 mph46%30.24 "Hg10 mi
9:50 AM59 °FSunny.N/A55%30.27 "Hg10 mi
8:50 AM57 °FSunny.9 mph59%30.27 "Hg10 mi
7:50 AM52 °FSunny.6 mph67%30.27 "Hg10 mi
6:50 AM46 °FSunny.5 mph76%30.27 "Hg10 mi
Weather by CustomWeather, © 2016

See weather overviewHow to use our weather pages